Flag for Tajikistan Weather past 2 weeks in Dushanbe, Tajikistan

Now
79 °F

Passing clouds.


Feels Like: 79 °F
Forecast: 74 / 97 °F
Wind: 6 mph from Northeast

Location: Dushanbe Airport

Current Time: Jul 24, 2014 at 1:35:02 AM

Latest Report: Jul 24, 2014 at 1:00 AM


Visibility: N/A

Pressure: 29.68 "Hg

Humidity: 42%

Dew point: 54 °F

Location of DushanbeLocation

Historic Weather in Dushanbe — Graph

°F

Dushanbe temperature yesterday

Maximum temperature yesterday: 104 °F (at 3:00 PM)
Minimum temperature yesterday: 72 °F (at 6:00 AM)
Average temperature yesterday: 88 °F

Past Weeks' High & Low Weather Summary

 TemperatureHumidityPressure
High104 °F (Jul 22, 4:30 PM)64% (Jul 16, 6:00 AM)29.80 "Hg (Jul 16, 6:00 AM)
Low64 °F (Jul 18, 4:30 AM)8% (Jul 11, 4:30 PM)29.56 "Hg (Jul 22, 4:00 PM)
Average83 °F29%29.71 "Hg
* Reported Midnight between Jul 8 and Jul 9 — Midnight between Jul 23 and Jul 24, Dushanbe, Weather by CustomWeather, © 2014

Note: Actual official high and low records may vary slightly from our data, if they occured in-between our weather recording intervals... More about our weather records

Advertising

Dushanbe weather history for July 10, 2014

 ConditionsComfort  
Time TempWeatherWind HumidityBarometerVisibility
12:00 AM
Jul 10
73 °FClear.6 mph44%29.65 "HgN/A
12:30 AM75 °FClear.1 mph36%29.65 "HgN/A
1:00 AM75 °FClear.1 mph39%29.65 "HgN/A
1:30 AM75 °FClear.1 mph39%29.65 "HgN/A
2:00 AM73 °FClear.1 mph38%29.65 "HgN/A
2:30 AM72 °FClear.No wind44%29.65 "HgN/A
3:00 AM70 °FClear.1 mph46%29.68 "HgN/A
3:30 AM70 °FClear.1 mph43%29.68 "HgN/A
4:00 AM72 °FClear.3 mph44%29.68 "HgN/A
4:30 AM70 °FClear.No wind46%29.68 "HgN/A
5:00 AM70 °FClear.1 mph46%29.68 "HgN/A
5:30 AM72 °FSunny.1 mph44%29.68 "Hg6 mi
6:00 AM72 °FSunny.1 mph44%29.71 "HgN/A
6:30 AM75 °FSunny.1 mph44%29.71 "HgN/A
7:00 AM72 °FSunny.1 mph53%29.71 "HgN/A
7:30 AM73 °FSunny.No wind47%29.71 "Hg5 mi
8:00 AM81 °FSunny.1 mph28%29.71 "HgN/A
8:30 AM82 °FSunny.1 mph32%29.71 "HgN/A
9:00 AM84 °FSunny.1 mph31%29.74 "HgN/A
9:30 AM86 °FSunny.1 mph31%29.71 "HgN/A
10:00 AM90 °FSunny.1 mph22%29.74 "HgN/A
10:30 AM91 °FSunny.1 mph18%29.74 "HgN/A
11:00 AM93 °FPassing clouds.1 mph16%29.74 "HgN/A
11:30 AM95 °FPassing clouds.3 mph15%29.74 "HgN/A
12:00 PM97 °FPassing clouds.3 mph11%29.71 "HgN/A
12:30 PM97 °FPassing clouds.6 mph11%29.71 "HgN/A
1:00 PM97 °FPassing clouds.3 mph10%29.71 "HgN/A
1:30 PM99 °FPassing clouds.3 mph9%29.71 "HgN/A
2:00 PM99 °FPassing clouds.1 mph9%29.71 "HgN/A
2:30 PM99 °FPassing clouds.1 mph9%29.68 "HgN/A
3:00 PM99 °FPassing clouds.3 mph11%29.68 "HgN/A
3:30 PM99 °FPassing clouds.1 mph12%29.68 "HgN/A
4:00 PM99 °FPassing clouds.3 mph11%29.68 "HgN/A
4:30 PM99 °FSunny.3 mph11%29.65 "HgN/A
5:00 PM99 °FSunny.3 mph11%29.65 "HgN/A
5:30 PM99 °FSunny.1 mph12%29.65 "HgN/A
6:00 PM99 °FSunny.3 mph16%29.65 "HgN/A
6:30 PM95 °FSunny.6 mph14%29.65 "HgN/A
7:00 PM93 °FPassing clouds.3 mph17%29.65 "HgN/A
7:30 PM91 °FPassing clouds.3 mph20%29.65 "HgN/A
8:00 PM90 °FPassing clouds.1 mph21%29.68 "Hg4 mi
8:30 PM86 °FPassing clouds.No wind29%29.68 "Hg5 mi
9:00 PM84 °FPassing clouds.No wind33%29.68 "Hg5 mi
9:30 PM82 °FPassing clouds.3 mph32%29.71 "HgN/A
10:00 PM82 °FPassing clouds.1 mph30%29.71 "HgN/A
10:30 PM79 °FPassing clouds.3 mph37%29.71 "Hg5 mi
11:00 PM77 °FPassing clouds.No wind39%29.71 "Hg6 mi
11:30 PM75 °FPassing clouds.3 mph44%29.71 "HgN/A
Weather by CustomWeather, © 2014

See weather overviewHow to use our weather pages